TimeEST,TemperatureF,Dew PointF,Humidity,Sea Level PressureIn,VisibilityMPH,Wind Direction,Wind SpeedMPH,Gust SpeedMPH,PrecipitationIn,Events,Conditions,WindDirDegrees,DateUTC
12:15 AM,37.4,30.2,75,30.25,10.0,Calm,Calm,-,0.00,,Clear,0,2013-03-09 05:15:00
12:35 AM,37.4,30.2,75,30.26,10.0,Calm,Calm,-,0.00,,Clear,0,2013-03-09 05:35:00
12:55 AM,37.4,32.0,81,30.26,10.0,Calm,Calm,-,0.00,,Clear,0,2013-03-09 05:55:00
1:15 AM,39.2,30.2,70,30.26,10.0,Calm,Calm,-,0.00,,Clear,0,2013-03-09 06:15:00
1:35 AM,37.4,30.2,75,30.26,10.0,Calm,Calm,-,0.00,,Clear,0,2013-03-09 06:35:00
2:15 AM,39.2,30.2,70,30.26,10.0,Calm,Calm,-,0.00,,Clear,0,2013-03-09 07:15:00
2:35 AM,41.0,30.2,65,30.26,10.0,NNW,3.5,-,0.00,,Clear,330,2013-03-09 07:35:00
3:15 AM,42.8,30.2,61,30.26,10.0,NNW,5.8,-,0.00,,Clear,340,2013-03-09 08:15:00
3:35 AM,42.8,30.2,61,30.26,10.0,NNW,3.5,-,0.00,,Clear,330,2013-03-09 08:35:00
4:15 AM,42.8,30.2,61,30.26,10.0,Calm,Calm,-,0.00,,Clear,0,2013-03-09 09:15:00
4:35 AM,41.0,30.2,65,30.26,10.0,North,4.6,-,0.00,,Clear,350,2013-03-09 09:35:00
5:15 AM,42.8,30.2,61,30.27,10.0,NNE,6.9,-,0.00,,Clear,20,2013-03-09 10:15:00
5:35 AM,44.6,30.2,57,30.27,10.0,NE,10.4,-,0.00,,Clear,40,2013-03-09 10:35:00
5:55 AM,44.6,30.2,57,30.28,10.0,NNE,6.9,-,0.00,,Clear,30,2013-03-09 10:55:00
6:15 AM,42.8,32.0,66,30.28,10.0,North,5.8,-,0.00,,Clear,10,2013-03-09 11:15:00
6:35 AM,42.8,32.0,66,30.28,10.0,NNE,6.9,-,0.00,,Clear,20,2013-03-09 11:35:00
6:55 AM,42.8,32.0,66,30.28,10.0,NNE,8.1,-,0.00,,Clear,20,2013-03-09 11:55:00
7:15 AM,44.6,32.0,61,30.28,10.0,NNE,4.6,-,0.00,,Clear,30,2013-03-09 12:15:00
7:35 AM,44.6,32.0,61,30.29,10.0,NNE,5.8,-,0.00,,Clear,20,2013-03-09 12:35:00
7:55 AM,46.4,32.0,57,30.30,10.0,North,8.1,-,0.00,,Clear,10,2013-03-09 12:55:00
8:15 AM,46.4,30.2,53,30.31,10.0,NNE,10.4,-,0.00,,Clear,20,2013-03-09 13:15:00
8:35 AM,46.4,30.2,53,30.30,10.0,NE,13.8,-,0.00,,Clear,40,2013-03-09 13:35:00
9:15 AM,50.0,32.0,50,30.32,10.0,NE,9.2,-,0.00,,Clear,40,2013-03-09 14:15:00
9:35 AM,50.0,32.0,50,30.32,10.0,NE,9.2,-,0.00,,Clear,40,2013-03-09 14:35:00
9:55 AM,51.8,32.0,47,30.32,10.0,NE,10.4,-,0.00,,Clear,40,2013-03-09 14:55:00
10:15 AM,51.8,32.0,47,30.33,10.0,NNE,6.9,-,0.00,,Clear,20,2013-03-09 15:15:00
10:35 AM,53.6,32.0,44,30.33,10.0,NNE,8.1,-,0.00,,Clear,30,2013-03-09 15:35:00
10:55 AM,55.4,32.0,41,30.33,10.0,NNE,6.9,-,0.00,,Clear,20,2013-03-09 15:55:00
11:15 AM,55.4,32.0,41,30.34,10.0,NE,8.1,-,0.00,,Clear,50,2013-03-09 16:15:00
11:35 AM,55.4,32.0,41,30.34,10.0,Calm,Calm,-,0.00,,Clear,0,2013-03-09 16:35:00
11:55 AM,57.2,32.0,38,30.33,10.0,NE,8.1,-,0.00,,Clear,50,2013-03-09 16:55:00
12:15 PM,57.2,32.0,38,30.32,10.0,North,3.5,-,0.00,,Clear,350,2013-03-09 17:15:00
12:35 PM,57.2,35.6,44,30.32,10.0,East,8.1,-,0.00,,Clear,90,2013-03-09 17:35:00
12:55 PM,57.2,37.4,48,30.31,10.0,East,8.1,-,0.00,,Clear,90,2013-03-09 17:55:00
1:15 PM,59.0,37.4,45,30.31,10.0,East,10.4,-,0.00,,Clear,80,2013-03-09 18:15:00
1:35 PM,59.0,37.4,45,30.30,10.0,East,9.2,-,0.00,,Clear,90,2013-03-09 18:35:00
1:55 PM,59.0,37.4,45,30.28,10.0,ESE,11.5,-,0.00,,Clear,120,2013-03-09 18:55:00
2:15 PM,59.0,39.2,48,30.28,10.0,ESE,10.4,-,0.00,,Clear,110,2013-03-09 19:15:00
2:35 PM,57.2,39.2,51,30.27,10.0,ESE,11.5,-,0.00,,Clear,120,2013-03-09 19:35:00
2:55 PM,57.2,37.4,48,30.27,10.0,ESE,6.9,-,0.00,,Clear,110,2013-03-09 19:55:00
3:15 PM,57.2,37.4,48,30.27,10.0,SE,9.2,-,0.00,,Clear,140,2013-03-09 20:15:00
3:35 PM,57.2,37.4,48,30.26,10.0,SE,8.1,-,0.00,,Clear,130,2013-03-09 20:35:00
3:55 PM,57.2,37.4,48,30.25,10.0,Calm,Calm,-,0.00,,Clear,0,2013-03-09 20:55:00
4:15 PM,57.2,39.2,51,30.26,10.0,SSE,6.9,-,0.00,,Clear,160,2013-03-09 21:15:00
4:35 PM,55.4,39.2,54,30.26,10.0,SSE,5.8,-,0.00,,Clear,160,2013-03-09 21:35:00
4:55 PM,55.4,39.2,54,30.26,10.0,SSE,4.6,-,0.00,,Clear,150,2013-03-09 21:55:00
5:15 PM,55.4,39.2,54,30.26,10.0,South,4.6,-,0.00,,Clear,170,2013-03-09 22:15:00
5:35 PM,53.6,39.2,58,30.27,10.0,SSE,5.8,-,0.00,,Clear,160,2013-03-09 22:35:00
5:55 PM,53.6,41.0,62,30.27,10.0,SSE,5.8,-,0.00,,Clear,160,2013-03-09 22:55:00
6:15 PM,51.8,39.2,62,30.27,10.0,Calm,Calm,-,0.00,,Clear,0,2013-03-09 23:15:00
6:35 PM,51.8,39.2,62,30.27,10.0,Calm,Calm,-,0.00,,Clear,0,2013-03-09 23:35:00
6:55 PM,51.8,41.0,67,30.28,10.0,Calm,Calm,-,0.00,,Clear,0,2013-03-09 23:55:00
7:15 PM,50.0,41.0,71,30.28,10.0,Calm,Calm,-,0.00,,Clear,0,2013-03-10 00:15:00
7:35 PM,48.2,41.0,76,30.28,10.0,Calm,Calm,-,0.00,,Clear,0,2013-03-10 00:35:00
7:55 PM,48.2,41.0,76,30.28,10.0,Calm,Calm,-,0.00,,Clear,0,2013-03-10 00:55:00
8:15 PM,48.2,41.0,76,30.29,10.0,Calm,Calm,-,0.00,,Clear,0,2013-03-10 01:15:00
8:35 PM,46.4,39.2,76,30.29,10.0,Calm,Calm,-,0.00,,Clear,0,2013-03-10 01:35:00
8:55 PM,46.4,41.0,81,30.30,10.0,Calm,Calm,-,0.00,,Clear,0,2013-03-10 01:55:00
9:15 PM,44.6,39.2,81,30.29,10.0,Calm,Calm,-,0.00,,Clear,0,2013-03-10 02:15:00
9:35 PM,44.6,39.2,81,30.29,10.0,Calm,Calm,-,0.00,,Clear,0,2013-03-10 02:35:00
10:15 PM,42.8,39.2,87,30.30,10.0,Calm,Calm,-,0.00,,Clear,0,2013-03-10 03:15:00
10:35 PM,42.8,39.2,87,30.30,10.0,Calm,Calm,-,0.00,,Clear,0,2013-03-10 03:35:00
10:55 PM,42.8,39.2,87,30.30,10.0,Calm,Calm,-,0.00,,Clear,0,2013-03-10 03:55:00
11:15 PM,42.8,39.2,87,30.29,10.0,Calm,Calm,-,0.00,,Clear,0,2013-03-10 04:15:00
11:35 PM,42.8,37.4,81,30.29,10.0,Calm,Calm,-,0.00,,Clear,0,2013-03-10 04:35:00
11:55 PM,42.8,37.4,81,30.28,10.0,Calm,Calm,-,0.00,,Clear,0,2013-03-10 04:55:00